[[{"header":{"parameterUnit":"m.s-1","parameterCategory":1,"la1":30.2991,"la2":30.254,"lo1":-89.0895,"lo2":-89.0444,"dy":0.0017,"dx":0.0017,"nx":28,"ny":28,"refTime":"2024-05-23T21:00:00:Z","depth":0,"parameterNumber":2,"parameterNumberName":"U-component_of_WINDS"},"data":[0,0,0,0,0,0,0,0,0,0,0,0,0,0,0,0,0,0,0,0,0,0,0,0,0,0,0,0,0,0,0,0,0,0,0,0,0,0,0,0,0,0,0,0,0,0,0,0,0,0,0,0,0,0,0,0,0,0,0.5886,0.5887,0,0.6028,0.603,0.6032,0.6047,0.6045,0.6044,0.6043,0.6188,0.6193,0.6198,0,0,0,0,0,0,0,0,0,0,0,0,0,0.5626,0.563,0.5886,0.5888,0.5889,0.6028,0.603,0.6032,0.6047,0.6045,0.6044,0.6042,0.6186,0.6192,0.6199,0,0,0,0,0,0,0,0,0,0,0,0,0,0.575,0.5632,0.5885,0.5914,0.5918,0.6028,0.603,0.6033,0.6048,0.6045,0.6043,0.6041,0.6184,0.6192,0.6199,0.6291,0,0,0.6223,0.6227,0,0,0,0,0,0,0,0,0.5743,0.576,0.5908,0.5912,0.5917,0.6018,0.5992,0.6119,0.6048,0.5998,0.6043,0.604,0.6133,0.6145,0.6176,0.6298,0.6304,0.6224,0.6229,0.6232,0.6234,0,0,0,0,0,0,0,0.5735,0.5754,0.5942,0.591,0.5915,0.5919,0.5934,0.6016,0.6076,0.6002,0.6004,0.6021,0.6135,0.6169,0.618,0.6306,0.6224,0.6231,0.6236,0.6239,0.6511,0.6513,0,0,0,0,0,0,0.5721,0.5747,0.5938,0.5946,0.5823,0.5925,0.5942,0.5987,0.6075,0.6086,0.6022,0.6021,0.6156,0.6171,0.6185,0.6299,0.6232,0.6239,0.6244,0.6508,0.6511,0.6514,0,0,0,0,0,0,0.5715,0.5738,0.5932,0.5847,0.5872,0.5932,0.5982,0.5991,0.6025,0.609,0.6101,0.6046,0.6155,0.6174,0.6265,0.6304,0.6243,0.625,0.6505,0.6509,0.6513,0.6527,0,0,0,0,0,0,0.5708,0.5736,0.5771,0.5848,0.5876,0.601,0.5985,0.5996,0.6039,0.6038,0.6115,0.6126,0.6155,0.6253,0.6273,0.6314,0.6256,0.6502,0.6507,0.6511,0.6523,0.6531,0.6537,0,0,0,0,0,0.5698,0.5769,0.5773,0.5796,0.5922,0.6012,0.6028,0.6061,0.6042,0.6078,0.612,0.6123,0.6296,0.6262,0.6284,0.6328,0.65,0.6506,0.6511,0.652,0.6529,0.6537,0,0,0,0,0,0,0.5695,0.578,0.5785,0.5883,0.594,0.6014,0.6061,0.6069,0.6133,0.613,0.6167,0.6184,0.6274,0.631,0.627,0.6422,0.6396,0.6407,0.6395,0.6405,0.6411,0.6401,0.6263,0,0,0,0,0,0.5706,0.5772,0.5842,0.5922,0.595,0.6001,0.6041,0.6061,0.6122,0.6146,0.6194,0.6253,0.632,0.6364,0.643,0.6528,0.6545,0.6569,0.6576,0.6581,0.659,0.6646,0.6657,0.6533,0.6533,0.6533,0,0,0.5729,0.5783,0.5823,0.5922,0.5969,0.6037,0.6021,0.6093,0.6143,0.6157,0.6246,0.6283,0.6351,0.6446,0.649,0.6479,0.6628,0.6589,0.6593,0.6599,0.6653,0.6664,0.6675,0.6537,0.6536,0.6535,0,0,0.5805,0.5853,0.5925,0.5972,0.6043,0.6077,0.6094,0.6167,0.6193,0.6283,0.6294,0.6354,0.647,0.6518,0.6558,0.6652,0.6658,0.6672,0.6709,0.6763,0.6772,0.6781,0.6816,0.6828,0.6681,0.6681,0.6681,0,0.5825,0.5927,0.596,0.6033,0.6076,0.6092,0.6165,0.6209,0.6298,0.6328,0.6314,0.646,0.6506,0.6613,0.6636,0.6667,0.6688,0.6665,0.6768,0.6778,0.6786,0.682,0.6833,0.6682,0.6682,0.6682,0.6682,0,0.5948,0.6019,0.6068,0.6155,0.6204,0.6276,0.632,0.6365,0.6381,0.6415,0.6507,0.6563,0.6641,0.6668,0.6683,0.6777,0.6768,0.6761,0.6736,0.6799,0.6831,0.6844,0.6684,0.6684,0.6683,0.6683,0,0,0.6027,0.6131,0.6149,0.6188,0.6268,0.6324,0.6396,0.6473,0.6512,0.6572,0.6634,0.6731,0.6726,0.677,0.6791,0.6838,0.691,0.6825,0.6828,0.684,0.7018,0.7024,0.7038,0.6914,0.6917,0.6919,0.7013,0,0.6113,0.6244,0.6276,0.6388,0.6454,0.647,0.6533,0.6589,0.6623,0.6684,0.6721,0.679,0.6776,0.6804,0.685,0.6892,0.6947,0.6885,0.6973,0.6976,0.6957,0.7055,0.7061,0.7147,0.7025,0.7027,0.7029,0,0.6231,0.6295,0.6414,0.6486,0.6515,0.6572,0.6645,0.6703,0.6766,0.6787,0.6838,0.6854,0.693,0.69,0.7006,0.6963,0.7001,0.7027,0.7031,0.7041,0.7007,0.7069,0.7175,0.7188,0.7049,0.7047,0.7046,0,0.6278,0.6394,0.648,0.6514,0.66,0.6639,0.6677,0.6738,0.6782,0.6845,0.6875,0.6946,0.6985,0.7039,0.7075,0.7049,0.7178,0.715,0.7198,0.7197,0.7225,0.7223,0.734,0.7247,0.7247,0.7247,0.7247,0,0.6372,0.6444,0.6503,0.6556,0.6637,0.6673,0.6753,0.679,0.6845,0.6905,0.6922,0.6979,0.7021,0.7083,0.7111,0.7195,0.7212,0.7232,0.7239,0.7231,0.7229,0.7257,0.7252,0.725,0.725,0.7249,0.7248,0,0.6438,0.648,0.6576,0.665,0.667,0.6727,0.679,0.6842,0.6876,0.6952,0.6972,0.7026,0.71,0.7141,0.7233,0.7252,0.7346,0.7349,0.7325,0.7328,0.7373,0.7369,0.7514,0.7535,0.7427,0.7428,0.7428,0,0.6496,0.6552,0.6632,0.6674,0.6713,0.678,0.6826,0.6863,0.691,0.6986,0.7029,0.7104,0.7167,0.7284,0.7331,0.7402,0.7407,0.7453,0.7418,0.7409,0.741,0.7406,0.7412,0.746,0.7461,0.7461,0.7462,0,0.6593,0.6612,0.6677,0.675,0.6804,0.6863,0.6922,0.6955,0.7002,0.7053,0.7129,0.7178,0.7273,0.7347,0.7422,0.746,0.7469,0.7473,0.7488,0.7481,0.7465,0.7476,0.7343,0.7469,0.7469,0.7468,0.7468,0.7467,0.6658,0.6709,0.6774,0.6846,0.6894,0.6949,0.7002,0.7043,0.7108,0.7189,0.7206,0.7287,0.7349,0.745,0.749,0.7554,0.7545,0.7566,0.7572,0.7577,0.7579,0.7454,0.7567,0.7567,0.7567,0.7567,0.7567,0,0.6758,0.68,0.6867,0.6949,0.7005,0.7009,0.7074,0.7122,0.7193,0.725,0.7311,0.7399,0.7472,0.7524,0.7598,0.7639,0.7645,0.7657,0.7655,0.7664,0.7583,0.7563,0.7651,0.7651,0.7651,0.7651,0.7651,0.7651,0.6816,0.6904,0.693,0.7041,0.7083,0.7163,0.72,0.725,0.7296,0.7394,0.7454,0.7488,0.7544,0.7622,0.7689,0.7702,0.7729,0.7741,0.7755,0.7678,0.7669,0.7661,0.7643,0.7746,0.7746,0.7832,0.7832,0.7833]},{"header":{"parameterUnit":"m.s-1","parameterCategory":1,"la1":30.2991,"la2":30.254,"lo1":-89.0895,"lo2":-89.0444,"dy":0.0017,"dx":0.0017,"nx":28,"ny":28,"refTime":"2024-05-23T21:00:00:Z","depth":0,"parameterNumber":3,"parameterNumberName":"V-component_of_WINDS"},"data":[0,0,0,0,0,0,0,0,0,0,0,0,0,0,0,0,0,0,0,0,0,0,0,0,0,0,0,0,0,0,0,0,0,0,0,0,0,0,0,0,0,0,0,0,0,0,0,0,0,0,0,0,0,0,0,0,0,0,5.2008,5.2008,0,5.2003,5.2003,5.2003,5.1951,5.195,5.1948,5.1947,5.1942,5.1943,5.1944,0,0,0,0,0,0,0,0,0,0,0,0,0,5.197,5.1971,5.2008,5.2008,5.2008,5.2003,5.2003,5.2003,5.1951,5.195,5.1948,5.1946,5.1942,5.1943,5.1944,0,0,0,0,0,0,0,0,0,0,0,0,0,5.1978,5.1972,5.2008,5.1981,5.1979,5.2004,5.2003,5.2003,5.1951,5.1949,5.1948,5.1946,5.1941,5.1943,5.1945,5.1995,0,0,5.195,5.195,0,0,0,0,0,0,0,0,5.1978,5.198,5.1985,5.1983,5.198,5.1976,5.1988,5.2,5.1952,5.1962,5.1947,5.1945,5.1955,5.1955,5.1959,5.1994,5.1994,5.195,5.1951,5.1952,5.1952,0,0,0,0,0,0,0,5.1978,5.198,5.2006,5.1985,5.1982,5.1969,5.1968,5.199,5.1969,5.1961,5.1957,5.1957,5.1953,5.1957,5.1958,5.1994,5.195,5.1951,5.1952,5.1953,5.2071,5.2073,0,0,0,0,0,0,5.1981,5.198,5.2006,5.2006,5.1974,5.1972,5.197,5.1979,5.1969,5.1966,5.1959,5.1955,5.1956,5.1956,5.1958,5.2016,5.1951,5.1953,5.1954,5.2069,5.2072,5.2074,0,0,0,0,0,0,5.198,5.1984,5.2006,5.1992,5.1994,5.1974,5.1985,5.198,5.1984,5.1968,5.1964,5.1967,5.1954,5.1956,5.1986,5.2016,5.1954,5.1955,5.2067,5.207,5.2073,5.2134,0,0,0,0,0,0,5.1979,5.1984,5.2002,5.1993,5.1995,5.2035,5.1986,5.1981,5.1987,5.1982,5.1974,5.1971,5.1953,5.1984,5.1988,5.2017,5.1957,5.2064,5.2068,5.2072,5.2129,5.2138,5.2147,0,0,0,0,0,5.1978,5.2019,5.2004,5.2007,5.2018,5.2036,5.2038,5.2016,5.199,5.2009,5.1998,5.1971,5.2012,5.1987,5.1991,5.2021,5.2062,5.2067,5.2072,5.2125,5.2137,5.2147,0,0,0,0,0,0,5.2032,5.2017,5.2,5.2039,5.204,5.2027,5.205,5.2029,5.2036,5.2031,5.2003,5.2002,5.2037,5.2032,5.2005,5.207,5.2032,5.2038,5.2071,5.2082,5.2091,5.2092,5.1958,0,0,0,0,0,5.2049,5.2066,5.2051,5.2087,5.2089,5.207,5.2077,5.206,5.2059,5.2059,5.2051,5.2051,5.2064,5.2073,5.2083,5.2128,5.2126,5.215,5.2159,5.2167,5.2172,5.2196,5.2207,5.209,5.209,5.209,0,0,5.2083,5.2077,5.2089,5.2098,5.2097,5.2115,5.207,5.2091,5.2104,5.2062,5.2091,5.2085,5.2083,5.2121,5.2138,5.2118,5.2204,5.2173,5.2179,5.218,5.2202,5.2214,5.2224,5.2093,5.2093,5.2092,0,0,5.2155,5.2152,5.2182,5.2182,5.218,5.2167,5.2175,5.2166,5.2161,5.2189,5.2159,5.2174,5.2196,5.2197,5.22,5.2273,5.2249,5.2278,5.2324,5.2348,5.2357,5.2366,5.2392,5.2402,5.2283,5.2283,5.2283,0,5.2198,5.2224,5.22,5.2223,5.2228,5.2192,5.2223,5.2223,5.2225,5.223,5.2208,5.2236,5.2233,5.2271,5.2289,5.2292,5.23,5.2278,5.2358,5.2366,5.2373,5.2398,5.2409,5.2287,5.2286,5.2286,5.2286,0,5.2277,5.2296,5.232,5.2324,5.2332,5.2358,5.2339,5.235,5.2333,5.2322,5.2352,5.2346,5.2356,5.2364,5.2347,5.24,5.2388,5.2363,5.2325,5.2388,5.2412,5.2421,5.2292,5.2291,5.229,5.2289,0,0,5.2382,5.2373,5.2382,5.2384,5.238,5.2394,5.242,5.243,5.244,5.2443,5.2464,5.2484,5.2461,5.2465,5.2447,5.2468,5.2528,5.2441,5.244,5.2458,5.2587,5.2606,5.2618,5.2512,5.2514,5.2515,5.2587,0,5.2452,5.2495,5.2475,5.252,5.2538,5.2504,5.2526,5.2527,5.2518,5.2532,5.2522,5.2537,5.2505,5.2507,5.2526,5.2517,5.2554,5.2511,5.2532,5.2533,5.2533,5.263,5.265,5.2719,5.2596,5.2598,5.2599,0,5.2539,5.2546,5.2594,5.2588,5.2594,5.2615,5.2623,5.2636,5.2636,5.2628,5.2633,5.2612,5.2636,5.2599,5.2633,5.2604,5.2611,5.2608,5.261,5.2611,5.257,5.2635,5.274,5.2751,5.2613,5.2612,5.2611,0,5.2612,5.2633,5.2665,5.2667,5.2661,5.2676,5.2675,5.2672,5.268,5.2687,5.2692,5.2701,5.2707,5.2715,5.2696,5.267,5.2733,5.2694,5.2728,5.2729,5.2743,5.2742,5.2851,5.2747,5.2747,5.2746,5.2746,0,5.2692,5.2722,5.2698,5.2717,5.2751,5.2728,5.2761,5.2756,5.2754,5.2772,5.2744,5.2761,5.2736,5.2751,5.2736,5.2767,5.277,5.2764,5.276,5.2767,5.2768,5.2772,5.2767,5.2749,5.2749,5.2748,5.2748,0,5.2779,5.2764,5.2796,5.2788,5.2787,5.2812,5.2805,5.2823,5.2812,5.2835,5.2839,5.2823,5.284,5.2822,5.2837,5.2827,5.2869,5.2858,5.287,5.2867,5.2902,5.2899,5.3018,5.3032,5.2918,5.2919,5.292,0,5.2831,5.2854,5.2849,5.2859,5.286,5.2876,5.2884,5.2862,5.2872,5.2874,5.2892,5.2906,5.2916,5.2943,5.2933,5.2944,5.2933,5.2974,5.2935,5.2942,5.2935,5.2934,5.2937,5.2982,5.2984,5.2985,5.2986,0,5.2926,5.2918,5.2931,5.2942,5.2952,5.2959,5.2964,5.2974,5.2951,5.2964,5.298,5.2988,5.3004,5.3018,5.3027,5.3025,5.3002,5.2998,5.3007,5.3014,5.3021,5.3018,5.2892,5.2996,5.2995,5.2994,5.2993,5.2993,5.2998,5.3017,5.3017,5.3033,5.3034,5.304,5.3057,5.3049,5.3063,5.3074,5.306,5.3081,5.3081,5.309,5.3091,5.3107,5.309,5.3102,5.3105,5.3109,5.3114,5.3018,5.3108,5.3108,5.3108,5.3107,5.3107,0,5.3092,5.3091,5.3105,5.3114,5.3126,5.3104,5.3109,5.312,5.3139,5.3141,5.3152,5.3172,5.3186,5.3177,5.3189,5.3204,5.3194,5.3208,5.3207,5.3207,5.3129,5.312,5.3216,5.3216,5.3216,5.3216,5.3216,5.3216,5.3143,5.3175,5.3167,5.3199,5.3197,5.3218,5.3223,5.3228,5.3229,5.3253,5.3265,5.3259,5.3257,5.3269,5.3281,5.3278,5.3284,5.3302,5.3296,5.3223,5.3212,5.3202,5.3194,5.3304,5.3304,5.3372,5.3373,5.3374]}]]